OE3UKW Weather Reports


Display with metric or nautical units.
time (UTC)temp
F
wind
direction
speed
MPH
gust
MPH
rain 1hr
in
rain 24hr
in
rain mn
in
humidity
%
barometer
mb
20260507144111 74 201 4.0 8.0 0.00 0.00 0.00 26 1013.0
20260507143111 74 213 9.0 11.0 0.00 0.00 0.00 26 1012.9
20260507142111 74 173 8.0 10.0 0.00 0.00 0.00 26 1012.9
20260507141111 74 132 4.0 12.0 0.00 0.00 0.00 28 1013.0
20260507140111 73 198 1.0 8.0 0.00 0.00 0.00 31 1013.0
20260507135111 72 231 7.0 10.0 0.00 0.00 0.00 28 1012.9
20260507134111 72 232 10.0 12.0 0.00 0.00 0.00 30 1012.9
20260507133111 73 236 9.0 15.0 0.00 0.00 0.00 29 1013.2
20260507132111 73 249 5.0 9.0 0.00 0.00 0.00 31 1013.1
20260507131110 73 270 5.0 8.0 0.00 0.00 0.00 31 1013.1
20260507130111 73 294 5.0 11.0 0.00 0.00 0.00 30 1013.2
20260507125111 73 284 3.0 10.0 0.00 0.00 0.00 34 1013.2
20260507124110 73 333 5.0 10.0 0.00 0.00 0.00 31 1013.3
20260507123111 72 303 8.0 13.0 0.00 0.00 0.00 33 1013.4
20260507122111 72 245 3.0 9.0 0.00 0.00 0.00 33 1013.5
20260507121110 72 313 4.0 8.0 0.00 0.00 0.00 34 1013.6
20260507120111 71 225 8.0 12.0 0.00 0.00 0.00 36 1013.6
20260507115110 70 336 4.0 9.0 0.00 0.00 0.00 35 1013.6
20260507114110 70 299 9.0 11.0 0.00 0.00 0.00 34 1013.7
20260507113111 70 360 6.0 10.0 0.00 0.00 0.00 37 1014.0
20260507112111 69 263 8.0 12.0 0.00 0.00 0.00 36 1014.0
20260507111110 69 250 7.0 10.0 0.00 0.00 0.00 40 1014.0
20260507110110 67 229 4.0 14.0 0.00 0.00 0.00 40 1014.2
20260507105110 67 235 5.0 12.0 0.00 0.00 0.00 41 1014.3
20260507104110 67 232 11.0 13.0 0.00 0.00 0.00 42 1014.2
20260507103110 67 224 7.0 14.0 0.00 0.00 0.00 41 1014.3
20260507102110 67 269 8.0 13.0 0.00 0.00 0.00 42 1014.3
20260507101110 66 230 8.0 13.0 0.00 0.00 0.00 44 1014.2
20260507100110 65 234 10.0 13.0 0.00 0.00 0.00 45 1014.2
20260507095110 65 233 9.0 13.0 0.00 0.00 0.00 45 1014.2
20260507094111 64 235 10.0 16.0 0.00 0.00 0.00 45 1014.2
20260507093110 64 268 8.0 13.0 0.00 0.00 0.00 46 1014.1
20260507092110 64 313 9.0 12.0 0.00 0.00 0.00 46 1014.0
20260507091110 64 241 12.0 14.0 0.00 0.00 0.00 44 1013.9
20260507090110 64 225 9.0 13.0 0.00 0.00 0.00 45 1013.8
20260507085110 65 253 8.0 13.0 0.00 0.00 0.00 45 1013.7
20260507084110 64 257 8.0 15.0 0.00 0.00 0.00 48 1013.4
20260507083110 63 261 8.0 12.0 0.00 0.00 0.00 49 1013.4
20260507082110 62 285 5.0 11.0 0.00 0.00 0.00 49 1013.4
20260507081110 62 233 7.0 12.0 0.00 0.00 0.00 49 1013.4
20260507080110 62 286 9.0 15.0 0.00 0.00 0.00 47 1013.2
20260507075110 62 205 10.0 15.0 0.00 0.00 0.00 47 1013.1
20260507074110 62 287 12.0 16.0 0.00 0.00 0.00 48 1012.9
20260507073110 61 286 5.0 11.0 0.00 0.00 0.00 49 1012.7
20260507072110 61 273 9.0 14.0 0.00 0.00 0.00 49 1012.8
20260507071110 61 246 10.0 16.0 0.00 0.00 0.00 50 1012.6
20260507070110 61 254 7.0 18.0 0.00 0.00 0.00 49 1012.7
20260507065110 61 260 8.0 14.0 0.00 0.00 0.00 49 1012.6
20260507064110 61 261 14.0 18.0 0.00 0.00 0.00 49 1012.5
20260507063110 61 268 7.0 15.0 0.00 0.00 0.00 49 1012.5
20260507062110 61 265 10.0 20.0 0.00 0.00 0.00 50 1012.4
20260507061110 60 265 6.0 18.0 0.00 0.00 0.00 51 1012.3
20260507060110 60 255 13.0 17.0 0.00 0.00 0.00 52 1012.3
20260507055110 60 242 10.0 16.0 0.00 0.00 0.00 52 1012.2
20260507054110 60 240 12.0 15.0 0.00 0.00 0.00 54 1012.2
20260507053110 59 265 7.0 13.0 0.00 0.00 0.00 54 1012.2
20260507052110 59 235 8.0 16.0 0.00 0.00 0.00 54 1012.0
20260507051110 58 252 13.0 16.0 0.00 0.00 0.00 55 1012.0
20260507050110 58 257 12.0 18.0 0.00 0.00 0.00 55 1011.5
20260507045110 58 236 11.0 16.0 0.00 0.00 0.00 56 1011.4
20260507044110 58 237 15.0 22.0 0.00 0.00 0.00 56 1011.3
20260507043109 58 261 14.0 21.0 0.00 0.00 0.00 56 1011.2
20260507042109 58 258 14.0 21.0 0.00 0.00 0.00 56 1011.1
20260507041109 58 275 11.0 21.0 0.00 0.00 0.00 56 1010.9
20260507040109 58 251 16.0 20.0 0.00 0.00 0.00 55 1010.8
20260507035110 58 244 12.0 21.0 0.00 0.00 0.00 55 1010.7
20260507034109 58 248 14.0 25.0 0.00 0.00 0.00 55 1010.7
20260507033109 58 244 13.0 26.0 0.00 0.00 0.00 55 1010.6
20260507032109 58 245 16.0 24.0 0.00 0.00 0.00 55 1010.7
20260507031109 58 277 15.0 26.0 0.00 0.00 0.00 55 1010.3
20260507030109 58 271 19.0 25.0 0.00 0.00 0.00 56 1010.3
20260507025109 58 241 15.0 18.0 0.00 0.00 0.00 57 1010.3
20260507024109 58 234 14.0 22.0 0.00 0.00 0.00 57 1010.3
20260507023109 58 257 11.0 19.0 0.00 0.00 0.00 58 1010.4
20260507022110 58 311 12.0 25.0 0.00 0.00 0.00 58 1010.1
20260507021109 58 254 14.0 23.0 0.00 0.00 0.00 58 1010.1
20260507020110 59 232 15.0 21.0 0.00 0.00 0.00 58 1010.2
20260507015109 59 244 16.0 20.0 0.00 0.00 0.00 57 1010.0
20260507014109 59 264 14.0 21.0 0.00 0.00 0.00 58 1009.9
20260507013124 60 244 10.0 17.0 0.00 0.00 0.00 57 1010.0
20260507012109 60 257 15.0 21.0 0.00 0.00 0.00 57 1010.0
20260507011109 60 232 15.0 22.0 0.00 0.00 0.00 57 1010.0
20260507010109 60 248 16.0 26.0 0.00 0.00 0.00 57 1009.8
20260507005110 60 360 18.0 23.0 0.00 0.00 0.00 57 1009.4
20260507004110 60 242 13.0 20.0 0.00 0.00 0.00 58 1009.4
20260507003110 60 240 13.0 19.0 0.00 0.00 0.00 58 1009.4
20260507002110 60 247 15.0 23.0 0.00 0.00 0.00 58 1009.3
20260507001110 61 263 17.0 25.0 0.00 0.00 0.00 58 1009.2
20260507000110 61 252 12.0 26.0 0.00 0.00 0.00 58 1009.2
20260506235110 61 259 15.0 21.0 0.00 0.00 0.00 59 1009.2
20260506234110 61 246 15.0 21.0 0.00 0.00 0.00 58 1009.3
20260506233110 60 244 18.0 22.0 0.00 0.00 0.00 58 1009.2
20260506232110 60 229 11.0 19.0 0.00 0.00 0.00 58 1008.9
20260506231110 60 225 9.0 11.0 0.00 0.00 0.00 58 1008.9
20260506230110 60 218 2.0 5.0 0.00 0.00 0.00 58 1008.8
20260506225110 60 220 4.0 7.0 0.00 0.00 0.00 58 1008.7
20260506224110 60 204 7.0 9.0 0.00 0.00 0.00 57 1008.6
20260506223110 61 195 5.0 9.0 0.00 0.00 0.00 57 1008.4
20260506222110 61 180 7.0 9.0 0.00 0.00 0.00 56 1007.9
20260506221110 62 171 8.0 11.0 0.00 0.00 0.00 55 1007.9
20260506220110 62 184 9.0 15.0 0.00 0.00 0.00 55 1007.9
20260506215113 63 173 10.0 12.0 0.00 0.00 0.00 54 1007.8
20260506214113 63 174 12.0 19.0 0.00 0.00 0.00 54 1007.6
20260506213113 63 153 13.0 21.0 0.00 0.00 0.00 53 1007.5
20260506212113 63 184 11.0 15.0 0.00 0.00 0.00 53 1007.3
20260506211113 64 163 10.0 20.0 0.00 0.00 0.00 53 1007.1
20260506210113 64 166 12.0 23.0 0.00 0.00 0.00 52 1007.2
20260506205113 64 163 11.0 20.0 0.00 0.00 0.00 52 1007.2
20260506204113 64 166 12.0 23.0 0.00 0.00 0.00 52 1007.0
20260506203113 64 173 16.0 24.0 0.00 0.00 0.00 51 1007.0
20260506202113 65 169 11.0 18.0 0.00 0.00 0.00 50 1007.0
20260506201113 65 155 11.0 16.0 0.00 0.00 0.00 50 1006.9
20260506200113 66 165 10.0 18.0 0.00 0.00 0.00 49 1006.9
20260506195113 66 169 13.0 21.0 0.00 0.00 0.00 48 1006.7
20260506194113 66 167 14.0 23.0 0.00 0.00 0.00 49 1006.4
20260506193113 65 171 11.0 19.0 0.00 0.00 0.00 49 1006.3
20260506192113 66 161 8.0 14.0 0.00 0.00 0.00 49 1006.3
20260506191113 66 159 6.0 14.0 0.00 0.00 0.00 48 1006.3
20260506190112 67 172 14.0 25.0 0.00 0.00 0.00 48 1006.1
20260506185112 67 161 13.0 23.0 0.00 0.00 0.00 47 1006.0
20260506184112 68 169 15.0 24.0 0.00 0.00 0.00 46 1005.9
20260506183113 68 180 15.0 21.0 0.00 0.00 0.00 46 1005.6
20260506182112 68 173 15.0 20.0 0.00 0.00 0.00 46 1005.5
20260506181112 69 167 7.0 17.0 0.00 0.00 0.00 46 1005.6
20260506180112 69 147 14.0 20.0 0.00 0.00 0.00 45 1005.3
20260506175113 69 173 10.0 20.0 0.00 0.00 0.00 45 1005.3
20260506174112 70 178 12.0 20.0 0.00 0.00 0.00 44 1005.4
20260506173112 70 159 12.0 19.0 0.00 0.00 0.00 43 1005.3
20260506172112 71 170 18.0 25.0 0.00 0.00 0.00 42 1005.2
20260506171112 71 182 13.0 31.0 0.00 0.00 0.00 40 1005.3
20260506170112 72 180 12.0 19.0 0.00 0.00 0.00 39 1005.4
20260506165112 72 172 13.0 23.0 0.00 0.00 0.00 38 1005.5
20260506164112 73 156 12.0 22.0 0.00 0.00 0.00 37 1005.4
20260506163112 73 177 19.0 30.0 0.00 0.00 0.00 36 1005.5
20260506162112 74 164 21.0 33.0 0.00 0.00 0.00 36 1005.5
20260506161112 74 178 14.0 35.0 0.00 0.00 0.00 36 1005.7
20260506160112 75 177 23.0 30.0 0.00 0.00 0.00 35 1005.7
20260506155112 75 191 19.0 30.0 0.00 0.00 0.00 35 1005.8
20260506154112 75 177 20.0 25.0 0.00 0.00 0.00 35 1005.8
20260506153112 75 169 15.0 22.0 0.00 0.00 0.00 35 1005.9
20260506152112 75 181 13.0 23.0 0.00 0.00 0.00 34 1005.9
20260506151112 76 138 17.0 25.0 0.00 0.00 0.00 33 1005.9
20260506150112 76 182 15.0 26.0 0.00 0.00 0.00 32 1005.9
20260506145112 76 167 16.0 28.0 0.00 0.00 0.00 33 1005.9